Flag for Switzerland Weather past 2 weeks in Grenchen, Solothurn, Switzerland

Now
70 °F

Mild.


Feels Like: 69 °F
Forecast: 63 / 95 °F
Wind: No wind

Location: Grenchen

Current Time: Jul 4, 2015 at 4:29:48 AM

Latest Report: Jul 4, 2015 at 3:00 AM


Visibility: N/A

Pressure: 30.17 "Hg

Humidity: 86%

Dew point: 65 °F

Location of GrenchenLocation

Historic Weather in Grenchen — Graph

°F

Grenchen temperature yesterday

Maximum temperature yesterday: 95 °F (at 6:00 PM)
Minimum temperature yesterday: 66 °F (at 7:00 AM)
Average temperature yesterday: 80 °F

Past Weeks' High & Low Weather Summary

 TemperatureHumidityPressure
High95 °F (Jul 2, 4:00 PM)100% (Jun 22, 6:00 AM)30.26 "Hg (Jun 22, 6:00 AM)
Low44 °F (Jun 24, 5:00 AM)23% (Jun 30, 4:00 PM)29.75 "Hg (Jun 22, 9:00 PM)
Average67 °F64%30.10 "Hg
* Reported Jun 19 3:00 AM — Jul 4 3:00 AM, Grenchen, Weather by CustomWeather, © 2015

Note: Actual official high and low records may vary slightly from our data, if they occured in-between our weather recording intervals... More about our weather records

Advertising

Grenchen weather history for previous 24 hours

 ConditionsComfort  
Time TempWeatherWind HumidityBarometerVisibility
3:00 AM
Sat, Jul 4
70 °FMild.No wind86%30.17 "HgN/A
2:00 AM72 °FMild.3 mph81%30.16 "HgN/A
1:00 AM72 °FMild.3 mph80%30.17 "HgN/A
12:00 AM73 °FMild.2 mph77%30.16 "HgN/A
11:00 PM
Fri, Jul 3
75 °FMild.3 mph71%30.15 "HgN/A
10:00 PM76 °FMild.5 mph71%30.14 "HgN/A
9:00 PM85 °FWarm.3 mph52%30.11 "HgN/A
8:00 PM88 °FHot.5 mph47%30.10 "HgN/A
7:00 PM94 °FExtremely hot.5 mph30%30.08 "HgN/A
6:00 PM95 °FExtremely hot.5 mph29%30.08 "HgN/A
5:00 PM95 °FExtremely hot.5 mph29%30.09 "HgN/A
4:00 PM94 °FExtremely hot.3 mph29%30.12 "HgN/A
3:00 PM94 °FExtremely hot.5 mph30%30.13 "HgN/A
2:00 PM92 °FHot.2 mph26%30.14 "HgN/A
1:00 PM89 °FHot.2 mph37%30.16 "HgN/A
12:00 PM88 °FPleasantly warm.2 mph39%30.18 "HgN/A
11:00 AM84 °FWarm.2 mph45%30.20 "HgN/A
10:00 AM81 °FWarm.1 mph50%30.22 "HgN/A
9:00 AM76 °FMild.1 mph63%30.23 "HgN/A
8:00 AM71 °FMild.1 mph76%30.25 "HgN/A
7:00 AM66 °FMild.2 mph93%30.26 "HgN/A
6:00 AM67 °FMild.2 mph90%30.24 "HgN/A
5:00 AM66 °FMild.1 mph91%30.23 "HgN/A
4:00 AM67 °FMild.2 mph90%30.22 "HgN/A
Weather by CustomWeather, © 2015

See weather overviewHow to use our weather pages